Location: Peebles
(55.6412°N, 3.1714°W)
Time: 21:14:33
(UTC+00:00)

Meteor 2-5 Rocket - Visible Passes

Search period start: 21 January 2022 00:00
Search period end: 31 January 2022 00:00
Orbit: 832 x 912 km, 81.2° (Epoch: 21 January)

Date Brightness Start Highest point End Pass type
(mag) Time Alt. Az. Time Alt. Az. Time Alt. Az.
21 Jan 5.6 04:24:53 19° SSE 04:24:53 19° SSE 04:26:21 10° SSE visible
21 Jan 5.5 06:07:27 14° SW 06:07:27 14° SW 06:08:24 10° SW visible
21 Jan 4.0 17:36:12 10° SSE 17:41:39 48° E 17:47:02 10° NNE visible
21 Jan 5.1 19:19:55 10° SW 19:25:13 38° WNW 19:30:27 10° N visible
21 Jan 6.6 21:09:05 10° NW 21:10:24 11° NW 21:11:44 10° NNW visible
22 Jan 4.0 17:30:39 10° SSE 17:36:07 49° E 17:41:31 10° NNE visible
22 Jan 5.1 19:14:28 10° SW 19:19:43 37° WNW 19:24:55 10° N visible
22 Jan 6.6 21:03:57 10° NW 21:04:57 10° NW 21:05:56 10° NNW visible
23 Jan 3.9 17:25:06 10° S 17:30:36 51° E 17:36:00 10° NNE visible
23 Jan 5.2 19:09:01 10° SW 19:14:13 36° WNW 19:19:23 10° N visible
23 Jan 6.7 20:59:01 10° NW 20:59:29 10° NW 20:59:57 10° NNW visible
24 Jan 3.9 17:19:33 10° S 17:25:03 53° E 17:30:29 10° NNE visible
24 Jan 5.2 19:03:34 10° SW 19:08:43 35° WNW 19:13:50 10° N visible
25 Jan 3.9 17:14:00 10° S 17:19:31 55° E 17:24:58 10° NNE visible
25 Jan 5.3 18:58:07 10° SW 19:03:13 34° WNW 19:08:16 10° N visible
26 Jan 3.9 17:08:28 10° S 17:13:59 57° E 17:19:27 10° NNE visible
26 Jan 5.4 18:52:40 10° SW 18:57:44 33° WNW 19:02:44 10° N visible
27 Jan 5.4 18:47:13 10° WSW 18:52:13 32° WNW 18:57:11 10° N visible
28 Jan 5.5 18:41:46 10° WSW 18:46:43 31° WNW 18:51:39 10° N visible
29 Jan 5.5 18:36:20 10° WSW 18:41:14 30° WNW 18:46:06 10° N visible
30 Jan 5.6 18:30:53 10° WSW 18:35:44 29° WNW 18:40:33 10° N visible
